Simultaneous Nadir Overpasses (SNOs) Predictions

Prediction of SNOs between AQUA and NOAA-19 Satellite Orbit:

Table of predicted SNOs for the next 14.0 days since TLE Epoch: 6/20/2020
Index Date (AQUA) Time (AQUA) Lat,Lon (AQUA) SZA (AQUA ) Date (NOAA-19) Time (NOAA-19) Lat,Lon (NOAA-19) SZA (NOAA-19 ) Distance(km) Time Diff (sec)
1 06/22/2020 07:43:23 -79.74,-144.33 122.35 06/22/2020 07:42:48 -79.72,-144.22 122.35 2.51 35
2 06/22/2020 08:32:49 79.72, 23.41 57.64 06/22/2020 08:33:44 79.75, 23.33 57.65 3.58 55
3 06/24/2020 13:17:06 79.72, -47.61 57.68 06/24/2020 13:16:02 79.72, -47.51 57.70 2.03 64
4 06/24/2020 14:06:33 -79.73, 119.95 122.31 06/24/2020 14:07:05 -79.75, 120.06 122.31 3.33 32
5 06/26/2020 19:40:16 79.71,-143.35 57.75 06/26/2020 19:40:19 79.73,-143.39 57.77 2.15 3
6 06/29/2020 01:14:00 -79.71, -46.83 122.12 06/29/2020 01:13:41 -79.72, -46.71 122.12 2.54 19
7 06/29/2020 02:03:27 79.74, 120.62 57.92 06/29/2020 02:04:36 79.73, 120.71 57.88 1.98 69
8 07/01/2020 06:47:43 79.70, 49.83 58.01 07/01/2020 06:46:54 79.70, 49.84 58.03 0.44 49
9 07/01/2020 07:37:10 -79.71,-142.60 121.98 07/01/2020 07:37:58 -79.74,-142.50 121.98 3.49 48
10 07/03/2020 12:21:27 -79.71, 146.33 121.79 07/03/2020 12:20:17 -79.68, 146.41 121.80 3.57 70




NCC Satellite Simultaneous Nadir Overpasses (SNOs) Prediction Service
